Probability
0 0 0 0 3 3 3 3 0 0 0 0 0 0 0 0 0 0 0 0 0 0 0 0 0 0 0 0 0 0 0 0 0 0 0 0 0 0 0 0 0 0 0
0 0 0 0 0 0 0 0 0 0 0 0 0 0 0 0 0 0 0 0 0 0 0 0 0 0 0 0 0 0 0 0 0 0 0 0 0 0 0 0 0 0 0
0 0 0 0 0 0 0 0 0 0 0 0 0 0 0 0 0 0 0 0 0 0 0 0 0 0 0 0 0 0 0 0 0 0 0 0 0 0 0 0 0 0 0
0 0 0 0 0 0 0 0 0 0 0 0 0 0 0 0 0 0 0 0 0 0 0 0 0 0 0 0 0 0 0 0 0 0 0 0 0 0 0 0 0 0 0
0 0 0 0 0 0 0 0 0 0 0 0 0 0 0 0 0 0 0 0 0 0 0 0 0 0 0 0 0 0 0 0 0 0 0 0 0 0 0 0 0 0 0
0 0 0 0 0 0 0 0 0 0 0 0 0 0 0 0 0 0 0 0 0 0 0 0 0 0 0 0 0 0 0 0 0 0 0 0 0 0 0 0 0 0 0
0 0 0 0 0 0 0 0 0 0 0 0 0 0 0 0 0 0 0 0 0 0 0 0 0 0 0 0 0 0 0 0 0 0 0 0 0 0 0 0 0 0 0
0 0 0 0 0 0 0 0 0 0 0 0 0 0 0 0 0 0 0 0 0 0 0 0 0 0 0 0 0 0 0 0 0 0 0 0 0 0 0 0 0 0 0
0 0 0 0 0 0 0 0 0 0 0 0 0 0 0 0 0 0 0 0 0 0 0 0 0 0 0 0 0 0 0 0 0 0 0 0 0 0 0 0 0 0 0
0 0 0 0 0 0 0 0 0 0 0 0 0 0 0 0 0 0 0 0 0 0 0 0 0 0 0 0 0 0 0 0 0 0 0 0 0 0 0 0 0 0 0
0 0 0 0 0 0 0 0 0 0 0 0 0 0 0 0 0 0 0 0 0 0 0 0 0 0 0 0 0 0 0 0 0 0 0 0 0 0 0 0 0 0 0
0 0 0 0 0 0 0 0 0 0 0 0 0 0 0 0 0 0 0 0 0 0 0 0 0 0 0 0 0 0 0 0 0 0 0 0 0 0 0 0 0 0 0
0 0 0 0 0 0 0 0 0 0 0 0 0 0 0 0 0 0 0 0 0 0 0 0 0 0 0 0 0 0 0 0 0 0 0 0 0 0 0 0 0 0 0
0 0 0 0 0 0 0 0 0 0 0 0 0 0 0 0 0 0 0 0 0 0 0 0 0 0 0 0 0 0 0 0 0 0 0 0 0 0 0 0 0 0 0
0 0 0 0 0 0 0 0 0 0 0 0 0 0 0 0 0 0 0 0 0 0 0 0 0 0 0 0 0 0 0 0 0 0 0 0 0 0 0 0 0 0 0
0 0 0 0 0 0 0 0 0 0 0 0 0 0 0 0 0 0 0 0 0 0 0 0 0 0 0 0 0 0 0 0 0 0 0 0 0 0 0 0 0 0 0
0 0 0 0 0 0 0 0 0 0 0 0 0 0 0 0 0 0 0 0 0 0 0 0 0 0 0 0 0 0 0 0 0 0 0 0 0 0 0 0 0 0 0
0 0 0 0 0 0 0 0 0 0 0 0 0 0 0 0 0 0 0 0 0 0 0 0 0 0 0 0 0 0 0 0 0 0 0 0 0 0 0 0 0 0 0
0 0 0 0 0 0 0 0 0 0 0 0 0 0 0 0 0 0 0 0 0 0 0 0 0 0 0 0 0 0 0 0 0 0 0 0 0 0 0 0 0 0 0
0 0 0 0 0 0 0 0 0 0 0 0 0 0 0 0 0 0 0 0 0 0 0 0 0 0 0 0 0 0 0 0 0 0 0 0 0 0 0 0 0 0 0
0 0 0 0 0 0 0 0 0 0 0 0 0 0 0 0 0 0 0 0 0 0 0 0 0 0 0 0 0 0 0 0 0 0 0 0 0 0 0 0 0 0 0
0 0 0 0 0 0 0 0 0 0 0 0 0 0 0 0 0 0 0 0 0 0 0 0 0 0 0 0 0 0 0 0 0 0 0 0 0 0 0 0 0 0 0
0 0 0 0 0 0 0 0 0 0 0 0 0 0 0 0 0 0 0 0 0 0 0 0 0 0 0 0 0 0 0 0 0 0 0 0 0 0 0 0 0 0 0
0 0 0 0 0 0 0 0 0 0 0 0 0 0 0 0 0 0 0 0 0 0 0 0 0 0 0 0 0 0 0 0 0 0 0 0 0 0 0 0 0 0 0
0 0 0 0 0 0 0 0 0 0 0 0 0 0 0 0 0 0 0 0 0 0 0 0 0 0 0 0 0 0 0 0 0 0 0 0 0 0 0 0 0 0 0
0 0 0 0 0 0 0 0 0 0 0 0 0 0 0 0 0 0 0 0 0 0 0 0 0 0 0 0 0 0 0 0 0 0 0 0 0 0 0 0 0 0 0
Height
5702 5706 5709 5712 5715 5717 5720 5722 5723 5725 5726 5727 5727 5727 5728 5728 5728 5727 5727 5725 5724 5722 5720 5717 5714 5711 5707 5703 5698 5694 5688 5683 5678 5673 5667 5660 5653 5647 5640 5632 5625 5618 5611
5692 5696 5699 5702 5705 5707 5710 5712 5713 5715 5716 5717 5717 5718 5718 5718 5718 5717 5717 5716 5714 5712 5710 5707 5704 5701 5697 5693 5688 5683 5678 5673 5668 5663 5657 5650 5643 5636 5630 5623 5615 5608 5601
5682 5686 5689 5692 5695 5697 5700 5702 5703 5705 5706 5707 5707 5708 5708 5708 5708 5707 5706 5705 5704 5702 5700 5697 5694 5690 5686 5682 5678 5673 5668 5663 5657 5653 5647 5640 5634 5627 5620 5613 5606 5599 5591
5672 5676 5679 5682 5685 5687 5690 5692 5693 5695 5696 5697 5697 5698 5698 5698 5698 5697 5696 5695 5693 5691 5689 5686 5683 5679 5676 5672 5667 5663 5658 5653 5647 5642 5637 5631 5624 5618 5611 5605 5598 5591 5583
5663 5666 5669 5672 5675 5677 5679 5681 5683 5684 5686 5686 5687 5688 5688 5688 5687 5687 5686 5684 5683 5681 5678 5675 5672 5668 5665 5661 5657 5652 5648 5643 5637 5632 5627 5621 5615 5609 5602 5596 5589 5582 5575
5653 5656 5659 5662 5665 5667 5669 5671 5672 5674 5675 5676 5677 5677 5677 5677 5677 5676 5675 5674 5672 5670 5667 5664 5661 5658 5654 5650 5646 5641 5637 5632 5627 5622 5617 5612 5606 5600 5593 5587 5580 5574 5568
5642 5646 5649 5651 5654 5657 5658 5660 5662 5663 5664 5665 5666 5666 5666 5666 5666 5665 5664 5663 5661 5659 5656 5653 5650 5646 5643 5639 5636 5631 5627 5622 5617 5613 5608 5602 5597 5592 5585 5579 5571 5564 5558
5632 5635 5638 5641 5643 5646 5648 5650 5651 5652 5653 5654 5655 5655 5655 5655 5655 5654 5653 5652 5650 5647 5645 5642 5639 5636 5632 5629 5626 5622 5617 5613 5609 5604 5599 5594 5588 5582 5576 5570 5563 5557 5551
5622 5624 5627 5630 5632 5635 5637 5639 5640 5641 5643 5643 5644 5644 5645 5645 5644 5643 5642 5641 5639 5637 5634 5631 5628 5625 5622 5619 5616 5613 5609 5604 5599 5595 5590 5585 5579 5574 5568 5562 5556 5550 5545
5611 5614 5616 5619 5621 5624 5625 5627 5629 5630 5631 5632 5633 5633 5634 5634 5633 5633 5631 5630 5628 5626 5624 5621 5618 5615 5612 5609 5606 5603 5599 5595 5591 5586 5582 5577 5572 5566 5561 5555 5549 5544 5539
5600 5603 5605 5608 5610 5612 5614 5616 5618 5619 5620 5621 5622 5623 5623 5623 5622 5622 5621 5619 5618 5616 5613 5611 5608 5605 5602 5599 5596 5593 5589 5586 5582 5578 5574 5569 5564 5559 5554 5549 5543 5538 5533
5589 5592 5595 5597 5599 5601 5603 5605 5606 5608 5609 5610 5611 5611 5612 5612 5612 5611 5610 5609 5608 5606 5604 5602 5599 5597 5594 5591 5587 5584 5580 5577 5573 5570 5566 5562 5557 5552 5547 5543 5538 5533 5528
5578 5580 5583 5586 5588 5590 5592 5594 5596 5597 5598 5599 5600 5601 5601 5601 5601 5601 5600 5599 5598 5596 5595 5593 5590 5588 5585 5582 5579 5576 5572 5569 5566 5562 5558 5555 5550 5545 5541 5537 5533 5528 5523
5567 5570 5572 5574 5577 5579 5581 5583 5585 5586 5588 5589 5590 5590 5591 5591 5591 5591 5590 5589 5588 5587 5585 5584 5582 5579 5577 5574 5571 5568 5565 5561 5558 5555 5551 5547 5543 5539 5535 5531 5528 5524 5520
5557 5559 5561 5564 5566 5568 5571 5573 5574 5576 5577 5579 5579 5580 5581 5581 5581 5580 5580 5579 5578 5577 5576 5575 5573 5571 5569 5566 5564 5560 5557 5554 5551 5548 5544 5541 5537 5534 5530 5526 5523 5519 5516
5547 5549 5552 5554 5556 5558 5560 5562 5564 5565 5567 5568 5569 5569 5570 5570 5570 5569 5569 5568 5568 5567 5566 5565 5564 5562 5560 5558 5556 5553 5550 5547 5545 5542 5538 5535 5532 5529 5525 5521 5518 5515 5512
5538 5540 5542 5544 5546 5548 5550 5552 5554 5555 5556 5557 5558 5558 5559 5559 5559 5559 5558 5558 5558 5557 5556 5556 5555 5554 5552 5550 5548 5546 5543 5541 5538 5535 5533 5530 5527 5524 5520 5517 5514 5511 5508
5528 5531 5533 5535 5537 5539 5541 5543 5544 5545 5546 5547 5547 5548 5548 5549 5549 5548 5548 5548 5547 5547 5547 5546 5546 5545 5543 5542 5540 5538 5536 5534 5532 5530 5527 5525 5522 5519 5516 5513 5511 5508 5505
5519 5521 5523 5526 5528 5530 5532 5533 5535 5536 5536 5537 5537 5537 5538 5539 5539 5539 5539 5539 5538 5538 5538 5537 5537 5536 5535 5534 5533 5532 5530 5528 5527 5524 5522 5520 5517 5515 5512 5510 5507 5505 5502
5509 5512 5514 5516 5519 5521 5522 5524 5525 5526 5527 5528 5528 5528 5528 5529 5529 5530 5530 5530 5530 5530 5529 5529 5529 5528 5527 5527 5526 5525 5524 5522 5521 5519 5517 5515 5513 5511 5508 5506 5504 5502 5500
5501 5503 5505 5508 5510 5512 5514 5515 5516 5517 5518 5519 5520 5520 5520 5521 5521 5521 5521 5522 5522 5522 5522 5521 5521 5521 5520 5520 5519 5518 5517 5516 5515 5514 5512 5511 5509 5507 5505 5503 5501 5499 5497
5492 5495 5497 5499 5501 5503 5505 5507 5508 5509 5510 5511 5512 5512 5513 5513 5514 5514 5514 5514 5514 5514 5514 5514 5514 5514 5513 5513 5513 5512 5512 5511 5510 5509 5508 5506 5505 5503 5502 5500 5498 5496 5494
5484 5486 5489 5491 5493 5495 5497 5499 5500 5501 5502 5503 5504 5505 5506 5506 5507 5507 5507 5507 5507 5508 5508 5508 5508 5508 5507 5507 5506 5506 5506 5506 5505 5504 5503 5502 5501 5500 5499 5497 5496 5494 5492
5477 5479 5481 5483 5485 5488 5490 5491 5493 5494 5495 5496 5497 5498 5499 5500 5500 5501 5501 5501 5501 5501 5502 5502 5502 5502 5502 5501 5501 5501 5501 5501 5500 5500 5500 5499 5498 5497 5496 5495 5493 5492 5490
5470 5472 5474 5476 5478 5480 5482 5484 5486 5487 5488 5490 5491 5492 5492 5493 5494 5494 5495 5495 5495 5496 5496 5496 5496 5496 5496 5496 5496 5496 5496 5496 5496 5496 5496 5496 5496 5495 5494 5493 5492 5490 5489
5462 5465 5467 5469 5471 5473 5475 5477 5479 5480 5482 5483 5484 5485 5486 5487 5488 5488 5489 5490 5490 5490 5491 5491 5491 5491 5491 5491 5491 5491 5492 5492 5493 5493 5494 5494 5494 5493 5493 5492 5491 5490 5488
Wind_Speed
47 47 46 45 44 44 44 43 43 42 42 41 41 42 42 42 41 41 40 40 41 41 42 43 43 44 45 46 47 48 48 48 47 47 48 49 49 50 49 49 48 48 48
46 46 46 45 45 45 44 44 44 43 42 42 41 42 41 41 41 41 41 42 42 42 42 44 45 46 46 47 48 48 48 49 48 48 48 49 49 49 48 48 48 47 48
44 45 46 45 44 44 44 44 44 43 42 42 42 42 41 42 42 42 42 42 42 43 44 45 46 46 47 47 48 48 48 48 48 48 48 49 48 48 47 47 47 47 47
43 44 45 45 45 45 45 44 43 42 42 42 42 42 42 42 42 43 43 44 44 45 45 45 46 47 47 47 47 47 48 48 48 48 47 47 46 46 46 46 46 46 46
42 43 44 44 44 44 44 44 43 42 42 42 42 42 42 42 43 43 44 44 44 45 45 46 47 47 47 47 47 48 48 48 47 47 46 45 45 45 45 45 45 45 44
43 43 43 43 43 43 43 43 42 42 42 42 42 42 42 42 43 43 43 44 44 44 45 46 47 47 47 47 46 47 47 46 46 46 45 44 44 44 44 44 44 43 41
43 43 43 43 43 43 43 43 43 42 43 43 43 43 43 43 43 43 43 44 44 45 45 46 46 46 45 44 44 45 45 45 45 45 44 44 43 43 43 43 43 42 39
43 43 43 44 44 43 43 43 43 43 43 44 44 43 43 43 43 43 43 43 44 45 45 45 45 44 44 43 43 44 44 44 44 43 42 42 42 42 42 42 41 39 36
42 42 42 43 43 44 44 44 43 43 43 43 44 42 42 42 42 42 43 43 44 44 43 43 43 43 42 42 42 42 42 42 42 41 40 40 40 41 41 40 38 36 34
41 41 42 42 42 43 43 43 43 44 43 43 43 42 42 41 41 42 42 42 42 42 42 42 41 41 41 41 41 41 41 40 40 38 38 38 39 39 38 36 34 33 32
42 41 41 42 42 42 42 42 43 43 43 42 42 42 41 40 40 40 40 40 39 39 40 39 38 38 38 39 39 39 39 39 38 37 37 37 37 36 35 34 32 31 30
42 43 43 42 42 42 42 42 42 41 41 40 40 40 40 39 38 38 38 38 38 38 38 37 37 36 36 36 37 37 38 37 36 36 36 35 34 33 32 31 29 29 29
41 41 42 42 42 42 41 40 40 40 40 39 38 39 38 38 38 37 36 36 36 36 36 35 34 34 34 35 35 36 36 35 35 34 34 33 32 31 30 28 27 27 26
38 39 40 40 40 40 39 39 39 39 38 38 38 37 37 37 37 36 36 36 36 35 35 34 34 33 34 34 34 35 35 33 32 32 32 31 30 29 28 26 25 24 23
35 35 36 37 38 38 38 38 38 37 37 37 37 36 36 36 36 36 36 36 35 34 34 34 34 33 33 33 33 34 33 31 30 29 29 28 27 27 26 25 23 22 21
33 33 33 33 35 36 37 37 37 36 36 37 37 37 36 36 35 35 35 34 34 34 34 33 33 32 32 32 31 31 29 28 28 27 26 25 25 24 23 22 21 20 20
33 33 32 32 33 34 34 35 35 35 35 36 36 36 35 34 34 34 34 33 33 33 33 33 32 31 31 30 30 29 27 26 25 24 24 24 23 22 21 20 19 19 18
32 32 32 31 32 32 32 32 33 33 33 34 34 34 34 33 33 33 33 33 32 32 32 31 31 30 29 28 27 26 25 24 23 22 23 22 22 21 19 18 17 17 16
31 31 31 31 31 31 31 31 31 31 31 31 31 32 31 31 31 31 30 30 30 30 29 30 29 28 27 26 25 25 24 23 22 21 21 20 19 18 17 16 16 15 14
30 30 30 30 31 30 30 30 30 30 29 28 28 28 28 28 28 28 28 28 28 28 28 27 26 25 24 24 23 23 22 21 20 20 19 18 17 15 15 14 14 13 13
29 29 29 29 29 29 29 29 29 28 28 27 26 26 25 25 26 26 26 26 26 26 25 25 24 23 23 23 22 21 20 20 19 18 17 17 15 14 14 13 13 12 12
28 28 28 28 28 28 27 27 26 27 26 26 25 24 23 23 23 23 23 23 23 23 23 22 21 21 21 21 20 19 18 17 17 17 17 16 15 13 13 12 12 11 11
26 26 26 26 26 26 26 25 25 24 24 24 24 23 22 22 22 22 22 21 21 20 20 20 20 19 19 18 17 17 16 16 16 16 14 13 12 11 10 10 10 9 9
24 24 25 24 24 24 24 24 24 23 22 22 22 22 22 22 21 20 20 19 19 19 19 18 18 17 17 16 16 16 16 15 14 13 11 10 9 8 7 7 7 7 7
23 23 23 23 23 23 23 22 22 21 21 21 21 21 21 21 20 20 19 18 17 17 17 17 17 17 16 16 15 15 14 13 11 10 9 7 6 6 5 4 4 5 5
22 22 22 22 21 22 22 21 21 20 20 20 20 19 19 19 18 18 17 16 16 16 16 16 16 15 15 15 14 13 12 11 9 9 7 6 5 4 3 2 3 3 4
Wind_Direction
242 243 245 247 249 250 252 254 257 260 262 264 265 265 266 267 269 272 276 278 280 282 284 286 289 292 294 296 297 300 302 303 304 305 306 307 308 309 310 311 312 312 313
243 244 245 247 249 251 253 254 257 259 262 263 264 266 266 267 270 273 275 277 279 281 284 287 289 292 294 295 297 299 300 302 304 305 306 307 307 309 310 311 311 312 312
242 244 245 247 249 251 253 255 258 259 261 262 263 265 267 269 271 272 274 277 279 282 284 287 289 291 293 295 297 298 300 302 303 304 306 306 307 308 309 311 312 312 314
243 244 245 247 249 252 254 255 257 259 261 261 262 265 268 270 272 274 275 278 280 282 284 287 289 291 292 294 296 297 299 301 303 305 306 306 307 308 310 311 312 312 314
244 245 246 247 250 252 254 256 257 258 260 262 263 266 268 270 272 274 276 279 281 283 284 286 289 290 291 293 295 297 299 301 302 304 305 306 308 309 310 311 312 313 313
245 245 246 247 250 252 254 256 256 258 260 262 265 267 268 270 272 274 277 279 281 283 285 286 287 289 291 293 295 297 299 300 302 304 305 306 308 309 311 311 312 313 313
247 247 247 247 250 252 254 255 257 258 260 262 264 267 268 270 272 274 276 279 281 283 285 286 287 289 290 292 294 296 298 300 302 303 304 306 308 309 310 311 312 314 314
248 248 249 250 251 253 253 254 257 258 260 262 263 265 268 269 271 273 276 279 282 283 285 286 287 288 290 291 293 296 297 299 300 302 304 305 307 308 310 312 313 314 314
248 249 250 251 251 252 254 255 257 258 260 262 263 265 267 269 271 273 275 278 281 283 285 286 287 289 289 291 293 295 296 298 300 301 302 304 305 307 310 312 313 313 313
247 248 249 250 251 252 254 255 256 258 260 261 263 265 267 270 272 274 276 278 280 282 285 286 288 289 289 291 292 294 295 296 298 299 301 303 305 308 310 312 314 313 313
247 248 249 250 251 253 255 256 257 258 260 262 264 266 267 269 271 274 277 278 280 283 286 286 288 289 290 291 293 295 295 295 296 298 300 303 306 308 309 311 312 314 315
248 249 250 251 252 254 255 256 258 258 260 264 265 266 268 270 272 274 276 277 280 283 285 287 288 289 292 294 296 297 296 296 296 297 300 302 305 306 308 309 310 312 315
249 249 249 251 253 254 255 256 257 258 261 264 265 267 268 270 272 273 275 277 280 283 284 286 287 290 292 294 297 299 299 298 297 298 300 301 304 305 307 308 309 311 314
248 250 250 250 251 252 253 255 257 259 262 263 265 266 268 270 271 272 273 276 279 281 283 284 286 289 291 294 297 299 300 299 298 299 300 301 304 305 306 307 307 309 313
249 250 249 249 250 251 253 255 257 259 261 263 264 266 268 270 271 272 274 275 277 279 282 283 285 287 290 293 296 299 299 298 298 300 301 303 305 305 306 306 306 307 311
247 249 250 251 251 251 253 254 256 258 260 262 264 266 268 270 271 272 273 275 276 277 279 281 284 287 289 293 295 297 297 296 298 300 302 304 304 305 308 307 306 306 309
246 247 248 249 250 251 252 254 256 258 260 263 265 267 270 270 270 271 273 273 274 276 277 279 282 285 287 291 293 294 294 295 298 300 302 303 304 306 306 306 306 305 307
246 246 247 248 249 250 252 254 257 259 262 264 266 268 269 270 271 272 273 273 273 274 275 277 279 282 285 288 289 290 292 295 297 298 301 302 303 304 304 305 307 309 311
245 245 247 248 249 251 253 256 258 260 263 265 267 267 268 270 271 271 272 272 272 273 274 276 278 280 282 284 286 288 290 291 294 295 298 299 301 303 304 305 307 309 312
244 245 247 248 249 251 253 255 258 260 262 264 266 267 268 269 269 269 269 270 272 272 274 276 277 280 281 281 282 285 287 288 291 295 297 299 299 301 303 306 309 310 313
244 245 247 248 249 251 253 255 257 259 261 262 264 265 267 268 268 268 269 269 270 271 273 276 277 278 280 280 281 282 285 287 289 292 295 296 297 299 303 306 309 311 313
244 246 247 247 249 250 251 253 255 258 260 262 263 264 265 267 267 268 269 270 269 269 270 272 274 276 277 280 279 279 283 284 285 288 290 291 293 296 300 304 307 309 314
243 243 244 245 245 246 248 251 254 257 258 258 260 262 263 264 265 268 270 270 268 267 269 270 272 274 277 279 278 276 280 282 283 285 286 289 291 294 297 302 306 308 313
241 241 241 241 243 244 247 250 252 254 255 255 258 259 260 261 263 267 268 266 264 265 268 269 271 273 276 277 275 273 276 277 276 278 277 283 289 295 301 308 312 313 320
239 241 242 243 243 245 245 247 249 251 253 254 256 257 257 259 261 263 265 264 263 264 266 267 270 271 271 272 270 268 270 270 266 261 264 273 284 297 305 316 323 328 338
241 242 242 241 241 241 242 244 246 248 250 251 253 256 258 258 259 260 261 261 262 264 265 268 269 270 270 269 264 260 258 256 248 244 253 262 269 285 295 316 333 344 356